Location: Newark
(43.2700°N, 11.0700°E)
Time: 08:25:36
(UTC+00:00)

UNISAT 6 - Visible Passes

Search period start: 28 October 2021 00:00
Search period end: 07 November 2021 00:00
Orbit: 606 x 687 km, 97.7° (Epoch: 27 October)

Date Brightness Start Highest point End Pass type
(mag) Time Alt. Az. Time Alt. Az. Time Alt. Az.
28 Oct ? 04:29:44 10° SE 04:33:40 28° ENE 04:37:35 10° N visible
28 Oct ? 18:00:21 48° ESE 18:00:21 48° ESE 18:04:15 10° S visible
28 Oct ? 19:38:07 14° W 19:38:07 14° W 19:39:08 10° WSW visible
29 Oct ? 04:54:38 10° SE 04:59:07 48° ENE 05:03:34 10° N visible
29 Oct ? 18:26:43 53° SSW 18:26:43 53° SSW 18:30:00 10° SSW visible
30 Oct ? 03:47:35 10° ENE 03:48:43 11° ENE 03:49:50 10° NE visible
30 Oct ? 17:15:14 16° ESE 17:15:14 16° ESE 17:17:04 10° SE visible
30 Oct ? 18:52:59 29° SW 18:52:59 29° SW 18:55:20 10° SW visible
31 Oct ? 04:10:49 10° ESE 04:14:00 19° ENE 04:17:09 10° NNE visible
31 Oct ? 17:41:26 25° SE 17:41:26 25° SE 17:43:53 10° SSE visible
31 Oct ? 19:19:10 15° WSW 19:19:10 15° WSW 19:20:10 10° WSW visible
01 Nov ? 04:35:17 10° SE 04:39:23 31° ENE 04:43:25 10° N visible
01 Nov ? 18:07:35 32° SSE 18:07:35 32° SSE 18:10:00 10° S visible
02 Nov ? 05:00:19 10° SSE 05:04:51 56° ENE 05:09:20 10° N visible
02 Nov ? 18:33:41 27° SSW 18:33:41 27° SSW 18:35:39 10° SSW visible
03 Nov ? 03:52:31 10° E 03:54:22 12° ENE 03:56:12 10° NE visible
03 Nov ? 17:22:01 14° SE 17:22:01 14° SE 17:23:07 10° SE visible
03 Nov ? 18:59:45 17° SW 18:59:45 17° SW 19:00:51 10° SW visible
04 Nov ? 04:16:14 10° ESE 04:19:40 21° ENE 04:23:03 10° NNE visible
04 Nov ? 17:48:04 21° SSE 17:48:04 21° SSE 17:49:44 10° SSE visible
05 Nov ? 04:40:52 10° SE 04:45:04 36° ENE 04:49:12 10° N visible
05 Nov ? 18:14:05 23° S 18:14:05 23° S 18:15:43 10° S visible
06 Nov ? 05:05:59 10° SSE 05:10:33 65° ENE 05:15:03 10° N visible
06 Nov ? 18:40:05 18° SSW 18:40:05 18° SSW 18:41:15 10° SSW visible
